Powrót do katalogu

THORAD DELTA 1 DEB

AktywnySSO
NORAD 8564·DEBRIS·🇺🇸 United States

Wystrzelony Nov 15, 1974 z Vandenberg Space Force Base

Loading…

Następne Przeloty (najbliższe 24 godziny)

TLE

ŚwieżeSource: Space-Track

Epoka: Sep 12, 2026, 15:39 UTC

1 08564U 74089DB  26255.65268919  .00000216  00000-0  13132-2 0  9998
2 08564 101.2415 152.6582 0038959 193.3037 194.7735 12.69450661384841

Śledź THORAD DELTA 1 DEB w czasie rzeczywistym z AllMySat

Download on the App Store